Regional Weather Roundup
Issued by NWS Little Rock, AR

Home | Current Version | Previous Version | Graphics & Text | Print | Product List | Glossary On
Versions: 1 2 3 4 5 6 7 8 9 10 11 12 13 14 15 16 17 18 19 20 21 22 23 24 25 26 27 28 29 30 31 32 33 34 35 36 37 38 39 40 41 42 43 44 45 46 47 48 49 50
000
ASUS44 KLZK 031705
RWRLZK

WEATHER ROUNDUP FOR ARKANSAS
NATIONAL WEATHER SERVICE LITTLE ROCK AR
1200 PM CDT SUN MAY 03 2015

NOTE: "FAIR" INDICATES FEW OR NO CLOUDS BELOW 12,000 FEET WITH NO
SIGNIFICANT WEATHER AND/OR OBSTRUCTIONS TO VISIBILITY.

ARZ001-003-010-029-031800-
NORTHWEST ARKANSAS

CITY           SKY/WX    TMP DP  RH WIND       PRES   REMARKS
FAYETTEVILLE   MOSUNNY   75  59  57 SW14G23   30.05R
FORT SMITH     SUNNY     79  56  45 SW12      30.03S
HARRISON       MOSUNNY   76  56  49 S10       30.05S
BENTONVILLE    MOSUNNY   73  54  49 SW16G23   30.05S
ROGERS         MOSUNNY   75  56  51 S17G24    30.05R
SILOAM SPGS    MOSUNNY   75  55  50 SW18G25   30.05R
HIGHFILL       MOSUNNY   74  57  55 SW12G18   30.03R
SPRINGDALE     SUNNY     75  55  50 SW15      30.06R
$$

ARZ004-005-016-031800-
NORTH CENTRAL ARKANSAS

CITY           SKY/WX    TMP DP  RH WIND       PRES   REMARKS
BATESVILLE     MOSUNNY   77  52  41 S9        30.07F
FLIPPIN        MOSUNNY   77  54  44 SW7       30.03S
MTN HOME       MOSUNNY   77  53  43 VRB7      30.04F
$$

ARZ040-041-031800-
WEST CENTRAL ARKANSAS

CITY           SKY/WX    TMP DP  RH WIND       PRES   REMARKS
MENA           MOSUNNY   79  57  47 S7G17     30.07R
MOUNT IDA      MOSUNNY   78  57  48 VRB6      30.05R
$$

ARZ009-017-025-026-028-031800-
NORTHEAST ARKANSAS

CITY           SKY/WX    TMP DP  RH WIND       PRES   REMARKS
CORNING          N/A     77  46  33 S12       30.08F
JONESBORO      MOSUNNY   76  48  37 SW12G21   30.08F
NEWPORT        MOSUNNY   80  49  33 SW10      30.09F
WALNUT RIDGE   MOSUNNY   79  46  31 S13       30.07F
BLYTHEVILLE    PTSUNNY   77  45  32 SW6G17    30.11S
$$

ARZ022-023-033-042-044-031800-
CENTRAL ARKANSAS

CITY           SKY/WX    TMP DP  RH WIND       PRES   REMARKS
LITTLE ROCK    MOSUNNY   80  54  40 S8        30.07S
N LITTLE ROCK  MOSUNNY   78  59  52 SW7       30.07
JACKSONVILLE   MOSUNNY   78  57  47 VRB6      30.07S
SEARCY         SUNNY     79  55  43 S12       30.09F
HOT SPRINGS    SUNNY     78  56  46 S6        30.07S
RUSSELLVILLE   SUNNY     75  56  51 S7        30.05S
CLINTON        FAIR      77  57  50 SW9       30.07F
$$

ARZ036-031800-
EAST ARKANSAS

CITY           SKY/WX    TMP DP  RH WIND       PRES   REMARKS
WEST MEMPHIS   MOSUNNY   78  50  37 S9        30.10F
$$

ARZ050-053-066-070-073-031800-
SOUTHWEST ARKANSAS

CITY           SKY/WX    TMP DP  RH WIND       PRES   REMARKS
ARKADELPHIA    FAIR      80  62  54 W7        30.07S
CAMDEN         SUNNY     81  57  44 CALM      30.07F
TEXARKANA      SUNNY     78  58  49 S7        30.07S
EL DORADO      SUNNY     79  56  45 SE10      30.08F
DE QUEEN       SUNNY     78  61  55 SW7       30.04S
$$

ARZ056-057-069-031800-
SOUTHEAST ARKANSAS

CITY           SKY/WX    TMP DP  RH WIND       PRES   REMARKS
PINE BLUFF     SUNNY     80  57  45 S12       30.07F
STUTTGART      MOSUNNY   81  54  39 S12       30.09S
MONTICELLO     SUNNY     80  58  46 SW7       30.08F

$$




USA.gov is the U.S. government's official web portal to all federal, state and local government web resources and services.